Terminal Aerodrome Forecast
Issued by NWS

Home | Current Version | Previous Version | Text Only | Print | Product List | Glossary On
Versions: 1 2 3 4 5 6 7 8 9 10 11 12 13 14 15 16 17
000
FTUS42 KTBW 251508 AAA
TAFRSW
TAF AMD
KRSW 251508Z 2515/2612 24006KT P6SM FEW015
     FM251700 27008KT P6SM SCT035
     FM260300 32005KT P6SM FEW250
     FM260900 36006KT P6SM FEW250=

USA.gov is the U.S. government's official web portal to all federal, state and local government web resources and services.